Home > Weather > Rzeszów > Past weeks

Flag for Poland Weather for the Past 2 Weeks in Rzeszów, Poland

Now
52 °F

Clear.


Feels Like: 46 °F
Forecast: 40 / 49 °F
Wind: 21 mph from Southwest

Location: Rzeszow-Jasionka

Current Time: Feb 10, 2016 at 12:46:15 AM

Latest Report: Feb 10, 2016 at 12:00 AM


Visibility: 10 mi

Pressure: 29.45 "Hg

Humidity: 62%

Dew point: 39 °F

Location of RzeszówLocation

Historic Weather in Rzeszów — Graph

°F

Rzeszów Temperature Yesterday

Maximum temperature yesterday: 54 °F (at 1:00 PM)
Minimum temperature yesterday: 45 °F (at 6:00 AM)
Average temperature yesterday: 48 °F

High & Low Weather Summary for the Past Weeks

 TemperatureHumidityPressure
High54 °F (Feb 9, 1:00 PM)100% (Jan 26, 12:00 AM)30.30 "Hg (Jan 26, 12:00 AM)
Low28 °F (Feb 5, 9:30 PM)50% (Feb 7, 1:30 PM)29.47 "Hg (Feb 9, 10:30 PM)
Average39 °F79%30.01 "Hg
* Reported Jan 25 11:00 PM — Feb 9 11:00 PM, Rzeszów, Weather by CustomWeather, © 2016

Note: Actual official high and low records may vary slightly from our data, if they occured in-between our weather recording intervals... More about our weather records

Advertising

Rzeszów Weather History for the Previous 24 Hours

 ConditionsComfort  
Time TempWeatherWind HumidityBarometerVisibility
11:00 PM
Tue, Feb 9
52 °FClear.18 mph62%29.47 "Hg10 mi
10:30 PM52 °FPassing clouds.20 mph62%29.47 "HgN/A
10:00 PM52 °FPassing clouds.22 mph67%29.50 "HgN/A
9:30 PM50 °FPassing clouds.14 mph71%29.50 "HgN/A
9:00 PM50 °FPassing clouds.10 mph71%29.53 "HgN/A
8:30 PM50 °FPassing clouds.12 mph71%29.56 "HgN/A
8:00 PM50 °FPassing clouds.13 mph71%29.56 "HgN/A
7:30 PM48 °FPassing clouds.10 mph71%29.59 "HgN/A
7:00 PM48 °FClear.14 mph71%29.59 "Hg10 mi
6:30 PM46 °FClear.15 mph76%29.59 "Hg10 mi
6:00 PM48 °FClear.14 mph71%29.62 "Hg10 mi
5:30 PM48 °FClear.13 mph71%29.62 "Hg10 mi
5:00 PM48 °FClear.14 mph66%29.65 "Hg10 mi
4:30 PM50 °FSunny.21 mph62%29.65 "Hg10 mi
4:00 PM52 °FSunny.23 mph58%29.65 "Hg10 mi
3:30 PM52 °FSunny.22 mph58%29.65 "Hg10 mi
3:00 PM52 °FSunny.17 mph58%29.68 "Hg10 mi
2:00 PM52 °FSunny.18 mph58%29.71 "Hg10 mi
1:30 PM52 °FSunny.16 mph58%29.71 "Hg10 mi
1:00 PM54 °FSunny.20 mph54%29.74 "Hg10 mi
12:30 PM52 °FPassing clouds.17 mph58%29.74 "HgN/A
11:30 AM52 °FSunny.16 mph58%29.77 "Hg10 mi
11:00 AM50 °FSunny.14 mph67%29.77 "Hg10 mi
10:30 AM46 °FSunny.16 mph76%29.80 "Hg10 mi
10:00 AM46 °FSunny.16 mph71%29.77 "Hg10 mi
9:00 AM45 °FSunny.15 mph81%29.77 "Hg10 mi
8:00 AM45 °FSunny.16 mph81%29.77 "Hg10 mi
7:30 AM45 °FSunny.17 mph81%29.77 "Hg10 mi
7:00 AM45 °FSunny.18 mph81%29.74 "Hg10 mi
6:30 AM45 °FClear.16 mph81%29.74 "Hg10 mi
6:00 AM45 °FClear.14 mph81%29.71 "Hg10 mi
5:30 AM46 °FClear.16 mph76%29.71 "Hg10 mi
5:00 AM46 °FClear.16 mph76%29.71 "Hg10 mi
4:30 AM46 °FClear.18 mph76%29.74 "Hg10 mi
4:00 AM46 °FClear.18 mph76%29.74 "Hg10 mi
3:30 AM46 °FClear.18 mph76%29.74 "Hg10 mi
3:00 AM46 °FClear.17 mph76%29.71 "Hg10 mi
2:30 AM46 °FSprinkles. Passing clouds.18 mph76%29.74 "HgN/A
2:00 AM48 °FClear.16 mph71%29.74 "Hg10 mi
1:30 AM48 °FClear.16 mph71%29.71 "Hg10 mi
1:00 AM46 °FClear.20 mph76%29.71 "Hg10 mi
12:30 AM46 °FClear.20 mph76%29.71 "Hg10 mi
12:00 AM46 °FClear.23 mph76%29.71 "Hg10 mi
Weather by CustomWeather, © 2016

See weather overviewHow to use our weather pages